When you browse on this site, cookies collect data to enhance your experience and personalize the content and advertising you see.
Visit our Privacy Policy to learn more. By continuing to use the site, you agree to this use of cookies and data.
  • In Hungary
  • List of Countries
  • For 7 days
  • Water Temperature
  • Satellite Maps
  • Weather Map
  • News
  • Weather Widgets
  • user-avatar
    Login

    Hourly Weather Chapel Hill

    Today, 23 March, Saturday

    Time Temperature Precipitation Wind Pressure Humidity
    00:00 +5°C° 0 mm 3 mps 749 mmHg 60%
    01:00 +4°C° 0 mm 3 mps 750 mmHg 63%
    02:00 +3°C° 0 mm 3 mps 750 mmHg 64%
    03:00 +4°C° 0 mm 2 mps 751 mmHg 65%
    04:00 +3°C° 0 mm 2 mps 751 mmHg 66%
    05:00 +3°C° 0 mm 2 mps 752 mmHg 65%
    06:00 +2°C° 0 mm 3 mps 753 mmHg 65%
    07:00 +2°C° 0 mm 3 mps 753 mmHg 64%
    08:00 +4°C° 0 mm 3 mps 754 mmHg 56%
    09:00 +6°C° 0 mm 4 mps 754 mmHg 49%
    10:00 +8°C° 0 mm 5 mps 755 mmHg 41%
    11:00 +10°C° 0 mm 5 mps 755 mmHg 38%
    12:00 +12°C° 0 mm 5 mps 755 mmHg 35%
    13:00 +14°C° 0 mm 5 mps 755 mmHg 31%
    14:00 +14°C° 0 mm 4 mps 754 mmHg 31%
    15:00 +15°C° 0 mm 4 mps 754 mmHg 30%
    16:00 +15°C° 0 mm 4 mps 754 mmHg 30%
    17:00 +13°C° 0 mm 3 mps 754 mmHg 36%
    18:00 +12°C° 0 mm 2 mps 755 mmHg 42%
    19:00 +10°C° 0 mm 1 mps 755 mmHg 48%
    20:00 +9°C° 0 mm 1 mps 755 mmHg 50%
    21:00 +7°C° 0 mm 0 mps 756 mmHg 52%
    22:00 +7°C° 0 mm 0 mps 756 mmHg 54%
    23:00 +6°C° 0 mm 0 mps 756 mmHg 54%

    Tomorrow, 24 March, Sunday

    Time Temperature Precipitation Wind Pressure Humidity
    00:00 +6°C° 0 mm 0 mps 757 mmHg 54%
    01:00 +5°C° 0 mm 0 mps 757 mmHg 54%
    02:00 +5°C° 0 mm 0 mps 757 mmHg 54%
    03:00 +5°C° 0 mm 0 mps 757 mmHg 53%
    04:00 +5°C° 0 mm 0 mps 756 mmHg 53%
    05:00 +6°C° 0 mm 1 mps 756 mmHg 55%
    06:00 +6°C° 0 mm 1 mps 756 mmHg 58%
    07:00 +6°C° 0 mm 1 mps 757 mmHg 60%
    08:00 +8°C° 0 mm 2 mps 757 mmHg 55%
    09:00 +12°C° 0 mm 2 mps 757 mmHg 51%
    10:00 +14°C° 0 mm 3 mps 757 mmHg 46%
    11:00 +15°C° 0 mm 4 mps 756 mmHg 44%
    12:00 +18°C° 0 mm 4 mps 756 mmHg 42%
    13:00 +20°C° 0 mm 5 mps 755 mmHg 39%
    14:00 +20°C° 0 mm 5 mps 754 mmHg 40%
    15:00 +20°C° 0 mm 4 mps 753 mmHg 41%
    16:00 +20°C° 0 mm 4 mps 752 mmHg 42%
    17:00 +18°C° 0 mm 4 mps 752 mmHg 47%
    18:00 +17°C° 0 mm 3 mps 752 mmHg 53%
    19:00 +14°C° 0 mm 3 mps 752 mmHg 58%
    20:00 +14°C° 0 mm 3 mps 752 mmHg 58%
    21:00 +13°C° 0 mm 3 mps 752 mmHg 59%
    22:00 +13°C° 0 mm 4 mps 753 mmHg 59%
    23:00 +13°C° 0 mm 4 mps 752 mmHg 61%

    Day after tomorrow, 25 March, Monday

    Time Temperature Precipitation Wind Pressure Humidity
    00:00 +12°C° 0 mm 3 mps 752 mmHg 62%
    01:00 +12°C° 0 mm 3 mps 752 mmHg 64%
    02:00 +12°C° 0 mm 3 mps 751 mmHg 66%
    03:00 +12°C° 0 mm 2 mps 751 mmHg 68%
    04:00 +12°C° 0 mm 2 mps 751 mmHg 69%
    05:00 +12°C° 0 mm 2 mps 750 mmHg 71%
    06:00 +12°C° 0 mm 2 mps 750 mmHg 72%
    07:00 +12°C° 0 mm 2 mps 750 mmHg 74%
    08:00 +14°C° 0.1 mm 2 mps 750 mmHg 71%
    09:00 +16°C° 0.1 mm 3 mps 750 mmHg 69%
    10:00 +18°C° 0.1 mm 4 mps 749 mmHg 66%
    11:00 +18°C° 0.4 mm 4 mps 749 mmHg 69%
    12:00 +18°C° 0.4 mm 4 mps 748 mmHg 72%
    13:00 +18°C° 0.4 mm 4 mps 748 mmHg 75%
    14:00 +18°C° 0.6 mm 4 mps 747 mmHg 78%
    15:00 +17°C° 0.6 mm 4 mps 747 mmHg 82%
    16:00 +17°C° 0.6 mm 3 mps 746 mmHg 85%
    17:00 +16°C° 1 mm 2 mps 746 mmHg 87%
    18:00 +15°C° 1 mm 1 mps 746 mmHg 90%
    19:00 +15°C° 1 mm 1 mps 747 mmHg 93%
    20:00 +14°C° 0.5 mm 2 mps 747 mmHg 93%
    21:00 +13°C° 0.5 mm 3 mps 748 mmHg 93%
    22:00 +12°C° 0.5 mm 4 mps 748 mmHg 94%
    23:00 +10°C° 0 mm 5 mps 749 mmHg 92%

    26 March, Tuesday

    Time Temperature Precipitation Wind Pressure Humidity
    00:00 +9°C° 0 mm 5 mps 749 mmHg 91%
    01:00 +8°C° 0 mm 5 mps 749 mmHg 89%
    02:00 +7°C° 0 mm 5 mps 750 mmHg 88%
    03:00 +7°C° 0 mm 5 mps 750 mmHg 88%
    04:00 +6°C° 0 mm 5 mps 750 mmHg 87%
    05:00 +5°C° 0 mm 5 mps 751 mmHg 83%
    06:00 +5°C° 0 mm 5 mps 752 mmHg 79%
    07:00 +3°C° 0 mm 5 mps 753 mmHg 76%
    08:00 +5°C° 0 mm 5 mps 754 mmHg 67%
    09:00 +5°C° 0 mm 6 mps 754 mmHg 59%
    10:00 +5°C° 0 mm 6 mps 755 mmHg 50%
    11:00 +8°C° 0 mm 5 mps 755 mmHg 47%
    12:00 +9°C° 0 mm 5 mps 755 mmHg 43%
    13:00 +10°C° 0 mm 5 mps 754 mmHg 40%
    14:00 +10°C° 0 mm 5 mps 754 mmHg 39%
    15:00 +10°C° 0 mm 5 mps 754 mmHg 39%
    16:00 +10°C° 0 mm 5 mps 754 mmHg 38%
    17:00 +10°C° 0 mm 4 mps 754 mmHg 42%
    18:00 +8°C° 0 mm 3 mps 755 mmHg 46%
    19:00 +7°C° 0 mm 3 mps 756 mmHg 50%
    20:00 +5°C° 0 mm 3 mps 756 mmHg 52%
    21:00 +4°C° 0 mm 3 mps 757 mmHg 55%
    22:00 +3°C° 0 mm 3 mps 757 mmHg 58%
    23:00 +2°C° 0 mm 3 mps 758 mmHg 61%

    27 March, Wednesday

    Time Temperature Precipitation Wind Pressure Humidity
    00:00 +2°C° 0 mm 3 mps 758 mmHg 65%
    01:00 +1°C° 0 mm 3 mps 758 mmHg 69%
    02:00 0°C° 0 mm 3 mps 758 mmHg 70%
    03:00 0°C° 0 mm 3 mps 758 mmHg 71%
    04:00 0°C° 0 mm 3 mps 758 mmHg 72%
    05:00 0°C° 0 mm 3 mps 759 mmHg 70%
    06:00 0°C° 0 mm 3 mps 759 mmHg 68%
    07:00 0°C° 0 mm 3 mps 760 mmHg 67%
    08:00 +2°C° 0 mm 3 mps 760 mmHg 59%
    09:00 +4°C° 0 mm 4 mps 761 mmHg 52%
    10:00 +6°C° 0 mm 4 mps 761 mmHg 44%
    11:00 +7°C° 0 mm 4 mps 761 mmHg 41%
    12:00 +10°C° 0 mm 4 mps 760 mmHg 39%
    13:00 +11°C° 0 mm 3 mps 760 mmHg 36%
    14:00 +11°C° 0 mm 3 mps 760 mmHg 37%
    15:00 +11°C° 0 mm 3 mps 759 mmHg 38%
    16:00 +12°C° 0 mm 3 mps 759 mmHg 39%
    17:00 +10°C° 0 mm 3 mps 760 mmHg 46%
    18:00 +8°C° 0 mm 2 mps 760 mmHg 53%
    19:00 +7°C° 0 mm 2 mps 761 mmHg 61%
    20:00 +6°C° 0 mm 2 mps 761 mmHg 64%
    21:00 +5°C° 0 mm 2 mps 761 mmHg 68%
    22:00 +4°C° 0 mm 2 mps 762 mmHg 71%
    23:00 +3°C° 0 mm 2 mps 762 mmHg 72%

    28 March, Thursday

    Time Temperature Precipitation Wind Pressure Humidity
    00:00 +3°C° 0 mm 2 mps 762 mmHg 74%
    01:00 +2°C° 0 mm 2 mps 762 mmHg 75%
    02:00 +1°C° 0 mm 2 mps 762 mmHg 79%
    03:00 +1°C° 0 mm 2 mps 762 mmHg 82%
    04:00 +1°C° 0 mm 2 mps 762 mmHg 85%
    05:00 +1°C° 0 mm 2 mps 763 mmHg 85%
    06:00 +1°C° 0 mm 2 mps 763 mmHg 85%
    07:00 0°C° 0 mm 3 mps 763 mmHg 85%
    08:00 +2°C° 0 mm 3 mps 763 mmHg 74%
    09:00 +5°C° 0 mm 3 mps 763 mmHg 62%
    10:00 +8°C° 0 mm 3 mps 763 mmHg 51%
    11:00 +10°C° 0 mm 3 mps 763 mmHg 46%
    12:00 +11°C° 0 mm 3 mps 762 mmHg 40%
    13:00 +14°C° 0 mm 2 mps 761 mmHg 35%
    14:00 +14°C° 0 mm 2 mps 761 mmHg 35%
    15:00 +15°C° 0 mm 2 mps 760 mmHg 35%
    16:00 +15°C° 0 mm 2 mps 760 mmHg 35%
    17:00 +13°C° 0 mm 2 mps 760 mmHg 42%
    18:00 +11°C° 0 mm 1 mps 760 mmHg 49%
    19:00 +9°C° 0 mm 1 mps 760 mmHg 56%
    20:00 +9°C° 0 mm 1 mps 761 mmHg 60%
    21:00 +8°C° 0 mm 1 mps 761 mmHg 64%
    22:00 +7°C° 0 mm 1 mps 761 mmHg 68%
    23:00 +7°C° 0 mm 1 mps 761 mmHg 75%
    Show more